www.pogodaiklimat.ru

Погода и климат >> Архив погоды >> Мьянма >> Тавой


ПОГОДА в Тавое

  • Прогноз погоды в Тавое
  • Монитор погоды в Тавое

АРХИВ ПОГОДЫ в Тавое

Время (UTC), дата Ветер
(напр.,м/с)
 
Видим.   Явления Облачность Т
(С)
Тd
(С)
f
(%)
Тe
(С)
Тes
(С)
Комфортность P
(гПа)
Po
(гПа)
Тmin
(С)
Tmax
(С)
R
(мм)
R24
(мм)
S
(см)
00 10.09 штиль 0 <50 м слаб. морось {дождь} 10/8 300 м
[Cb calv As op]
+23.5 +23.5 100 +32 +32 очень
душно
1010.3 1008.3 +22.0 64
03 10.09 ЮЗ 1 1000 м в посл. час морось 10/8 300 м
[Cb calv As op]
+25.0 +25.0 100 +36 +36 очень
душно
1012.2 1010.2
06 10.09 Ю 1 1000 м слаб. морось 10/6 300 м
[Cb calv Ac As]
+25.5 +24.8 96 +36 +39 очень
душно
1011.7 1009.7
09 10.09 ЮЗ 5 1000 м слаб. морось 10/6 300 м
[Cb calv Ac As]
+25.0 +23.3 90 +33 +34 очень
душно
1010.7 1008.7
12 10.09 штиль 0 <100 м слаб. морось 10/6 300 м
[Cb calv Ac As]
+24.5 +23.7 95 +33 +33 очень
душно
1011.2 1009.2 +26.5
15 10.09 штиль 0 <100 м слаб. морось 10/6 300 м
[Cb calv Ac As]
+24.0 +24.0 100 +33 +33 очень
душно
1012.9 1010.9
00 11.09 штиль 0 1000 м слаб. морось {дождь} 10/8 300 м
[Cb calv As op]
+23.0 +23.0 100 +32 +32 очень
душно
1013.3 1011.3 +22.5 18
03 11.09 ЮЗ 1 2000 м {дождь, морось} 10/8 300 м
[Cb calv Ac As Cs]
+26.0 +24.6 92 +37 +38 очень
душно
1014.8 1012.8
06 11.09 ЮЗ 3 4000 м 10/6 300 м
[Cb calv Ac As Cs]
+29.5 +24.4 74 +41 +45 опасность
перегрева
1013.8 1011.9
09 11.09 ЮЗ 3 4000 м 9/6 300 м
[Cb calv Ac As Cs]
+29.5 +24.4 74 +41 +43 опасность
перегрева
1012.5 1010.6
12 11.09 СЗ 1 50 м {морось} 10/6 300 м
[Cb calv Ac As Cs]
+26.0 +23.8 88 +36 +36 очень
душно
1013.1 1011.1 +30.2 0.0
15 11.09 штиль 0 <50 м 10/6 300 м
[Cb calv Ac As Cs]
+24.0 +23.3 96 +32 +32 очень
душно
1015.0 1013.0
00 12.09 ЮЗ 1 200 м слаб. морось 10/8 300 м
[Cb calv Ac As Cs]
+23.5 +22.8 96 +31 +31 очень
душно
1013.2 1011.2 +22.0 0.0
03 12.09 ЮЗ 1 1000 м {морось} 10/5 300 м
[Cb calv Ac As Cs]
+26.0 +24.6 92 +37 +41 очень
душно
1015.2 1013.2
06 12.09 СЗ 1 2000 м в посл. час морось 9/5 300 м
[Cb calv Ac cuf Cs]
+29.5 +24.4 74 +41 +49 опасность
перегрева
1014.3 1012.4
09 12.09 З 1 2000 м в посл. час морось 10/5 300 м
[Cb calv Ac cuf Cs]
+29.5 +25.1 77 +43 +45 опасность
перегрева
1012.5 1010.6
12 12.09 штиль 0 2000 м 9/5 300 м
[Cb calv Ac cuf Cs]
+27.5 +25.3 88 +40 +40 очень
душно
1012.1 1010.1 +30.0 0.0
15 12.09 штиль 0 50 м 10/5 300 м
[Cb calv Ac As Cs]
+25.0 +24.2 95 +34 +34 очень
душно
1014.0 1012.0
00 13.09 ЮВ 1 1000 м в посл. час морось 10/5 300 м
[Cb calv Ac As Cs]
+24.0 +24.0 100 +33 +33 очень
душно
1012.9 1010.9 +23.0 5
03 13.09 ЮЗ 1 4000 м 10/6 300 м
[Cb calv Ac As Cs]
+27.0 +24.8 88 +39 +42 очень
душно
1014.0 1012.0
06 13.09 ЮЗ 1 2000 м {морось} 10/8 300 м
[Cb calv Ac As Cs]
+30.0 +24.6 73 +43 +45 опасность
перегрева
1011.7 1009.8
09 13.09 ЮЗ 2 1000 м 10/8 300 м
[Cb calv Ac As Cs]
+28.5 +24.9 81 +41 +42 опасность
перегрева
1009.8 1007.9
12 13.09 штиль 0 50 м 10/8 300 м
[Cb calv Ac As Cs]
+26.0 +24.6 92 +37 +37 очень
душно
1010.2 1008.2 +30.0 2
15 13.09 штиль 0 <50 м слаб. морось {дождь} 10/8 300 м
[Cb calv As op]
+24.5 +24.5 100 +34 +34 очень
душно
1011.6 1009.6
00 14.09 штиль 0 200 м слаб. морось {дождь} 10/8 300 м
[Cb calv As op]
+24.0 +24.0 100 +33 +33 очень
душно
1009.8 1007.8 +22.5 29
03 14.09 ЮЗ 1 2000 м в посл. час морось 10/5 300 м
[Cb calv Ac cuf Cs]
+26.0 +24.6 92 +37 +41 очень
душно
1011.0 1009.0
06 14.09 СЗ 2 1000 м слаб. морось 10/5 300 м
[Cb calv Ac As Cs]
+27.5 +25.3 88 +40 +45 очень
душно
1010.0 1008.1
09 14.09 ЮЗ 2 1000 м {морось} 10/5 300 м
[Cb calv Ac As Cs]
+28.5 +26.4 88 +43 +45 опасность
перегрева
1007.7 1005.8
12 14.09 ЮВ 2 200 м 10/5 300 м
[Cb calv Ac As Cs]
+27.0 +25.6 92 +40 +40 очень
душно
1008.4 1006.4 +29.5 3
15 14.09 ЮЗ 1 <50 м слаб. морось 10/5 300 м
[Cb calv Ac As Cs]
+26.0 +24.6 92 +37 +37 очень
душно
1010.3 1008.3
00 15.09 штиль 0 1000 м в посл. час морось 9/5 300 м
[Cb calv Ac As Cs]
+24.0 +23.3 96 +32 +32 очень
душно
1008.5 1006.5 +22.8 5
03 15.09 ЮЗ 1 1000 м {морось} 10/8 300 м
[Cb calv Ac As Cs]
+26.5 +25.1 92 +38 +40 очень
душно
1010.2 1008.2
06 15.09 ЮЗ 2 4000 м 8/4 300 м
[Cb calv Ac cuf Cs]
+30.5 +25.4 74 +44 +53 опасность
перегрева
1007.5 1005.6
09 15.09 ЮЗ 3 4000 м 9/5 300 м
[Cb calv Ac As Cs]
+31.0 +24.6 69 +44 +46 опасность
перегрева
1005.5 1003.6
12 15.09 ЮВ 1 50 м слаб. морось {дождь} 10/8 300 м
[Cb calv As op]
+25.0 +25.0 100 +36 +36 очень
душно
1007.3 1005.3 +31.3 10
15 15.09 штиль 0 <50 м {морось} 10/8 300 м
[Cb calv Ac As Cs]
+25.0 +25.0 100 +36 +36 очень
душно
1009.4 1007.4
03 16.09 ЮЗ 1 4000 м 9/5 300 м
[Cb calv Ac und Cs]
+27.5 +25.3 88 +40 +45 очень
душно
1009.5 1007.6
06 16.09 ЮЗ 3 2000 м 9/5 300 м
[Cb calv Ac As Cs]
+29.5 +25.1 77 +43 +48 опасность
перегрева
1008.5 1006.6
09 16.09 ЮЗ 6 2000 м 9/5 300 м
[Cb calv Ac cuf Cs]
+30.0 +25.4 76 +44 +45 опасность
перегрева
1005.9 1004.0
12 16.09 ЮЗ 1 200 м слаб. морось 10/5 300 м
[Cb calv Ac As Cs]
+27.5 +26.2 93 +42 +42 опасность
перегрева
1006.9 1005.0 +31.5 2
15 16.09 штиль 0 <50 м {морось} 10/5 300 м
[Cb calv Ac As Cs]
+26.0 +24.6 92 +37 +37 очень
душно
1008.8 1006.8

 

Местоположение метеостанции Тавой (Мьянма): широта 14.10 долгота 98.22 высота над уровнем моря 17 м.

В архиве по умолчанию представлена погода в Тавое за последнюю неделю. Архивные данные за месяц целиком и за предыдущие месяцы, начиная с января 2011 года, Вы можете получить, выбрав интересующий диапазон дат из раскрывающегося списка и нажав кнопку "Ввод!".


*Определитесь, кто Вы:
робот инопланетянин человек

Внимание! Время в таблицах - всемирное. Для получения местного времени необходимо прибавить поправку, которая равна 6.5 ч.

Смотрите также архив погоды в соседних городах и на ближайших метеорологических станциях:

Погода в Тхонг Пха Пхум (Таиланд) (85 км)
Погода в Йе (Мьянма) (133 км)
Погода в Канчанабури (Таиланд) (142 км)
Погода в У-Тхонг Агромете (Таиланд) (179 км)
Погода в Накхонпатхоме (Таиланд) (189 км)
Погода в Мьей (Мьянма) (190 км)
Погода в Суфанбури (Таиланд) (210 км)
Погода в Самутсонгкхраме (Таиланд) (210 км)
Погода в Умпханге (Таиланд) (225 км)
Погода в Пхетчабури (Таиланд) (225 км)

Пояснения к столбцам:

Ветер - указаны скорость ветра в м/с - средняя за 10 мин, порывы в срок и между сроками (в фигурных скобках) и направление, откуда дует ветер: С - северный, СВ - северо-восточный, В - восточный, ЮВ - юго-восточный, Ю - южный, ЮЗ - юго-западный, З - западный, СЗ - северо-западный.
Видимость - горизонтальная дальность видимости в метрах или километрах. При видимости от 1 до 10 км при отсутствии осадков обычно наблюдается дымка, при ухудшении видимости до 1 км и менее - туман. В сухую погоду видимость может ухудшаться дымом, пылью или мглою.
Явления - указаны атмосферные явления, наблюдавшиеся в срок или в последний час перед сроком; фигурными скобками обозначены явления, наблюдавшиеся между сроками (за 1-3 часа до срока); квадратными скобками обозначены град или гололедные отложения с указанием их диаметра в мм.
Облачность - указаны через наклонную черту общая и нижняя облачность в баллах и высота нижней границы облаков в метрах; квадратными скобками обозначены формы облаков: Ci - перистые, Cs - перисто-слоистые, Cc - перисто-кучевые, Ac - высококучевые, As - высокослоистые, Sc - слоисто-кучевые, Ns - слоисто-дождевые, Cu - кучевые, Cb - кучево-дождевые. Подробнее классификацию облаков см. в Атласе облаков (PDF).
T - Температура воздуха - температура, измеренная на высоте 2 м над землей.
Td - Температура точки росы - температура, при понижении до которой содержащийся в воздухе водяной пар достигнет насыщения.
f - Относительная влажность воздуха - влажноcть воздуха, измеренная на высоте 2 м над землей.
Te - Эффективная температура - температура, которую ощущает одетый по сезону человек в тени. Характеристика душности погоды. При расчете учитывается влияние влажности воздуха и скорости ветра на теплоощущения человека.
Tes - Эффективная температура на солнце - температура, которую ощущает человек, с поправкой на солнечный нагрев. Характеристика знойности погоды. Зависит от высоты солнца над горизонтом, облачности и скорости ветра. Ночью, в пасмурную погоду, а также при ветре 12 м/с и более поправка равна нулю.
P - Атмосферное давление - приведенное к уровню моря атмосферное давление.
Po - Атмосферное давление - измеренное на уровне метеостанции атмосферное давление.
Tmin - Минимальная температура - минимум температуры воздуха на высоте 2 м над землей.
Tmax - Максимальная температура - максимум температуры воздуха на высоте 2 м над землей.
R - Количество осадков - Количество выпавших осадков за период времени, мм. При наведении курсора мыши на число - период времени, за который выпало указанное количество осадков.
R24 - Количество осадков - Количество выпавших осадков за 24 часа, мм.
S - Снежный покров - Высота снежного покрова, см. При наведении курсора мыши на число - состояние снежного покрова и степень покрытия местности в баллах.